INMARSAT 5-F2

Last updated on Tue Sep 22 2026 00:03:13 GMT+0000 (Coordinated Universal Time)

1 40384U 15005A 26264.47981265 -.00000289 00000+0 00000+0 0 9990 2 40384 0.0191 154.1459 0000336 320.6888 3.2315 1.00268729 41967
UTC large
Height (km)
Speed (km/s)
/
Latitude / Longitude
Inclination (degrees)
Orbital Period (minutes)
Azimuth
Elevation
Range (km)
Doppler Factor

Next 0 passes for location: London (51.5072 / 0.1276)

No passes found over London.
INMARSAT 5-F2